Hourly Data Report for September 23, 2017

All times are specified in Local Standard Time (LST). Add 1 hour to adjust for Daylight Saving Time where and when it is observed.

POND INLET A
NUNAVUT

72°41'22.000" N
77°58'08.000" W
61.60 m
2403206
71095
YIO

Download Data

Hourly Data (September 2017)
Hourly Data Report for September 23, 2017
Temp Definition
°C
Dew Point Temp Definition
°C
Rel Hum Definition
%
Wind Dir Definition
10's deg

Wind Spd Definition
km/h
Visibility Definition
km
Stn Press Definition
kPa
Hmdx Definition


Wind Chill Definition


Weather Definition


TIME
00:00 Legend Double Dagger -3.2 -4.6 90 17 8 16.1 100.66   -6 LegendNANA
01:00 Legend Double Dagger -2.6 -4.2 89 25 11 16.1 100.64   -7 LegendNANA
02:00 Legend Double Dagger -2.9 -4.3 90 25 15 16.1 100.61   -8 LegendNANA
03:00 Legend Double Dagger -3.0 -4.9 87 25 13 16.1 100.61   -8 LegendNANA
04:00 Legend Double Dagger -3.5 -5.2 88 16 8 16.1 100.59   -7 LegendNANA
05:00 Legend Double Dagger -3.5 -5.1 89 17 11 16.1 100.59   -8 LegendNANA
06:00 Legend Double Dagger -3.4 -5.0 89 19 9 16.1 100.59   -7 LegendNANA
07:00 Legend Double Dagger -3.4 -5.0 89 17 8 16.1 100.59   -7 LegendNANA
08:00 Legend Double Dagger -2.8 -4.4 89 15 4 16.1 100.57   -4 LegendNANA
09:00 Legend Double Dagger -2.4 -4.3 87 17 4 16.1 100.56   -4 LegendNANA
10:00 Legend Double Dagger -1.1 -3.3 85   0 16.1 100.55     LegendNANA
11:00 Legend Double Dagger -0.2 -2.9 82 LegendMM 4 16.1 100.54   -1 LegendNANA
12:00 Legend Double Dagger -0.7 -3.1 84 14 5 16.1 100.53   -2 LegendNANA
13:00 Legend Double Dagger -1.1 -4.6 77 LegendMM 4 16.1 100.52   -2 LegendNANA
14:00 Legend Double Dagger -0.6 -4.1 77 18 5 16.1 100.54   -2 LegendNANA
15:00 Legend Double Dagger -1.4 -4.8 78 16 8 16.1 100.55   -4 LegendNANA
16:00 Legend Double Dagger -2.0 -5.7 76 16 11 16.1 100.56   -6 LegendNANA
17:00 Legend Double Dagger -2.5 -5.7 79 16 9 16.1 100.57   -6 LegendNANA
18:00 Legend Double Dagger -3.0 -6.0 80 17 8 16.1 100.56   -6 LegendNANA
19:00 Legend Double Dagger -3.0 -6.1 79 15 9 16.1 100.57   -7 LegendNANA
20:00 Legend Double Dagger -3.1 -5.9 81 17 9 16.1 100.56   -7 LegendNANA
21:00 Legend Double Dagger -3.1 -5.8 82 15 15 16.1 100.54   -8 LegendNANA
22:00 Legend Double Dagger -3.4 -6.0 82 14 21 16.1 100.52   -10 LegendNANA
23:00 Legend Double Dagger -3.6 -6.2 82 14 24 16.1 100.53   -10 LegendNANA

Notes on Data Quality.

Legend

  • E = Estimated
  • M = Missing
  • NA = Not Available
  • ‡ = Partner data that is not subject to review by the National Climate Archives
Date modified: